Year,Month,Day,Hour,Minute,Value (Times are PST for temperature in C)
2013,05,05,00,00,15.50
2013,05,05,00,01,15.60
2013,05,05,00,02,15.60
2013,05,05,00,03,15.70
2013,05,05,00,04,15.70
2013,05,05,00,05,15.80
2013,05,05,00,06,15.80
2013,05,05,00,07,15.80
2013,05,05,00,08,15.80
2013,05,05,00,09,15.80
2013,05,05,00,10,15.70
2013,05,05,00,11,15.60
2013,05,05,00,12,15.50
2013,05,05,00,13,15.40
2013,05,05,00,14,15.30
2013,05,05,00,15,15.10
2013,05,05,00,16,15.00
2013,05,05,00,17,15.00
2013,05,05,00,18,14.90
2013,05,05,00,19,14.80
2013,05,05,00,20,14.80
2013,05,05,00,21,14.80
2013,05,05,00,22,14.80
2013,05,05,00,23,14.70
2013,05,05,00,24,14.70
2013,05,05,00,25,14.70
2013,05,05,00,26,14.70
2013,05,05,00,27,14.60
2013,05,05,00,28,14.60
2013,05,05,00,29,14.60
2013,05,05,00,30,14.60
2013,05,05,00,31,14.60
2013,05,05,00,32,14.60
2013,05,05,00,33,14.60
2013,05,05,00,34,14.60
2013,05,05,00,35,14.70
2013,05,05,00,36,14.70
2013,05,05,00,37,14.70
2013,05,05,00,38,14.60
2013,05,05,00,39,14.60
2013,05,05,00,40,14.60
2013,05,05,00,41,14.70
2013,05,05,00,42,14.80
2013,05,05,00,43,14.80
2013,05,05,00,44,14.80
2013,05,05,00,45,14.80
2013,05,05,00,46,14.80
2013,05,05,00,47,14.90
2013,05,05,00,48,14.90
2013,05,05,00,49,14.90
2013,05,05,00,50,14.90
2013,05,05,00,51,14.90
2013,05,05,00,52,14.90
2013,05,05,00,53,15.00
2013,05,05,00,54,15.00
2013,05,05,00,55,15.00
2013,05,05,00,56,15.00
2013,05,05,00,57,15.00
2013,05,05,00,58,15.00
2013,05,05,00,59,14.90
2013,05,05,01,00,14.90
2013,05,05,01,01,14.90
2013,05,05,01,02,14.80
2013,05,05,01,03,14.80
2013,05,05,01,04,14.80
2013,05,05,01,05,14.80
2013,05,05,01,06,14.80
2013,05,05,01,07,14.80
2013,05,05,01,08,14.80
2013,05,05,01,09,14.70
2013,05,05,01,10,14.70
2013,05,05,01,11,14.70
2013,05,05,01,12,14.60
2013,05,05,01,13,14.60
2013,05,05,01,14,14.60
2013,05,05,01,15,14.60
2013,05,05,01,16,14.60
2013,05,05,01,17,14.60
2013,05,05,01,18,14.60
2013,05,05,01,19,14.60
2013,05,05,01,20,14.60
2013,05,05,01,21,14.60
2013,05,05,01,22,14.60
2013,05,05,01,23,14.70
2013,05,05,01,24,14.70
2013,05,05,01,25,14.80
2013,05,05,01,26,14.80
2013,05,05,01,27,14.80
2013,05,05,01,28,14.80
2013,05,05,01,29,14.80
2013,05,05,01,30,14.80
2013,05,05,01,31,14.80
2013,05,05,01,32,14.80
2013,05,05,01,33,14.80
2013,05,05,01,34,14.80
2013,05,05,01,35,14.80
2013,05,05,01,36,14.80
2013,05,05,01,37,14.80
2013,05,05,01,38,14.80
2013,05,05,01,39,14.80
2013,05,05,01,40,14.80
2013,05,05,01,41,14.80
2013,05,05,01,42,14.80
2013,05,05,01,43,14.70
2013,05,05,01,44,14.70
2013,05,05,01,45,14.60
2013,05,05,01,46,14.50
2013,05,05,01,47,14.40
2013,05,05,01,48,14.30
2013,05,05,01,49,14.20
2013,05,05,01,50,14.20
2013,05,05,01,51,14.10
2013,05,05,01,52,14.00
2013,05,05,01,53,13.90
2013,05,05,01,54,13.90
2013,05,05,01,55,13.90
2013,05,05,01,56,14.00
2013,05,05,01,57,14.00
2013,05,05,01,58,14.10
2013,05,05,01,59,14.10
2013,05,05,02,00,14.20
2013,05,05,02,01,14.30
2013,05,05,02,02,14.40
2013,05,05,02,03,14.60
2013,05,05,02,04,14.70
2013,05,05,02,05,14.80
2013,05,05,02,06,15.00
2013,05,05,02,07,15.00
2013,05,05,02,08,15.10
2013,05,05,02,09,15.30
2013,05,05,02,10,15.40
2013,05,05,02,11,15.50
2013,05,05,02,12,15.70
2013,05,05,02,13,15.80
2013,05,05,02,14,15.90
2013,05,05,02,15,16.00
2013,05,05,02,16,16.10
2013,05,05,02,17,16.10
2013,05,05,02,18,16.20
2013,05,05,02,19,16.20
2013,05,05,02,20,16.30
2013,05,05,02,21,16.30
2013,05,05,02,22,16.30
2013,05,05,02,23,16.30
2013,05,05,02,24,16.40
2013,05,05,02,25,16.40
2013,05,05,02,26,16.40
2013,05,05,02,27,16.40
2013,05,05,02,28,16.40
2013,05,05,02,29,16.30
2013,05,05,02,30,16.30
2013,05,05,02,31,16.30
2013,05,05,02,32,16.30
2013,05,05,02,33,16.20
2013,05,05,02,34,16.20
2013,05,05,02,35,16.10
2013,05,05,02,36,16.00
2013,05,05,02,37,15.70
2013,05,05,02,38,15.50
2013,05,05,02,39,15.20
2013,05,05,02,40,14.80
2013,05,05,02,41,14.60
2013,05,05,02,42,14.30
2013,05,05,02,43,14.10
2013,05,05,02,44,13.80
2013,05,05,02,45,13.70
2013,05,05,02,46,13.50
2013,05,05,02,47,13.30
2013,05,05,02,48,13.20
2013,05,05,02,49,13.10
2013,05,05,02,50,13.00
2013,05,05,02,51,13.00
2013,05,05,02,52,13.00
2013,05,05,02,53,13.00
2013,05,05,02,54,13.00
2013,05,05,02,55,13.00
2013,05,05,02,56,13.10
2013,05,05,02,57,13.10
2013,05,05,02,58,13.10
2013,05,05,02,59,13.20
2013,05,05,03,00,13.40
2013,05,05,03,01,13.50
2013,05,05,03,02,13.60
2013,05,05,03,03,13.70
2013,05,05,03,04,13.70
2013,05,05,03,05,13.80
2013,05,05,03,06,13.80
2013,05,05,03,07,13.90
2013,05,05,03,08,13.90
2013,05,05,03,09,14.00
2013,05,05,03,10,14.00
2013,05,05,03,11,14.10
2013,05,05,03,12,14.20
2013,05,05,03,13,14.20
2013,05,05,03,14,14.20
2013,05,05,03,15,14.30
2013,05,05,03,16,14.40
2013,05,05,03,17,14.50
2013,05,05,03,18,14.50
2013,05,05,03,19,14.60
2013,05,05,03,20,14.70
2013,05,05,03,21,14.80
2013,05,05,03,22,14.90
2013,05,05,03,23,15.00
2013,05,05,03,24,15.10
2013,05,05,03,25,15.20
2013,05,05,03,26,15.30
2013,05,05,03,27,15.30
2013,05,05,03,28,15.40
2013,05,05,03,29,15.40
2013,05,05,03,30,15.50
2013,05,05,03,31,15.40
2013,05,05,03,32,15.40
2013,05,05,03,33,15.40
2013,05,05,03,34,15.30
2013,05,05,03,35,15.30
2013,05,05,03,36,15.30
2013,05,05,03,37,15.20
2013,05,05,03,38,15.20
2013,05,05,03,39,15.10
2013,05,05,03,40,15.00
2013,05,05,03,41,15.00
2013,05,05,03,42,14.90
2013,05,05,03,43,14.90
2013,05,05,03,44,14.80
2013,05,05,03,45,14.80
2013,05,05,03,46,14.80
2013,05,05,03,47,14.90
2013,05,05,03,48,14.90
2013,05,05,03,49,15.00
2013,05,05,03,50,15.00
2013,05,05,03,51,15.10
2013,05,05,03,52,15.10
2013,05,05,03,53,15.20
2013,05,05,03,54,15.20
2013,05,05,03,55,15.30
2013,05,05,03,56,15.30
2013,05,05,03,57,15.30
2013,05,05,03,58,15.30
2013,05,05,03,59,15.30
2013,05,05,04,00,15.30
2013,05,05,04,01,15.30
2013,05,05,04,02,15.30
2013,05,05,04,03,15.30
2013,05,05,04,04,15.30
2013,05,05,04,05,15.30
2013,05,05,04,06,15.30
2013,05,05,04,07,15.30
2013,05,05,04,08,15.30
2013,05,05,04,09,15.30
2013,05,05,04,10,15.30
2013,05,05,04,11,15.20
2013,05,05,04,12,15.20
2013,05,05,04,13,15.10
2013,05,05,04,14,15.10
2013,05,05,04,15,15.00
2013,05,05,04,16,15.00
2013,05,05,04,17,15.00
2013,05,05,04,18,14.90
2013,05,05,04,19,14.90
2013,05,05,04,20,14.80
2013,05,05,04,21,14.80
2013,05,05,04,22,14.90
2013,05,05,04,23,14.90
2013,05,05,04,24,14.90
2013,05,05,04,25,14.90
2013,05,05,04,26,14.90
2013,05,05,04,27,14.90
2013,05,05,04,28,14.90
2013,05,05,04,29,14.90
2013,05,05,04,30,14.90
2013,05,05,04,31,14.90
2013,05,05,04,32,14.80
2013,05,05,04,33,14.80
2013,05,05,04,34,14.80
2013,05,05,04,35,14.80
2013,05,05,04,36,14.70
2013,05,05,04,37,14.70
2013,05,05,04,38,14.60
2013,05,05,04,39,14.60
2013,05,05,04,40,14.60
2013,05,05,04,41,14.50
2013,05,05,04,42,14.50
2013,05,05,04,43,14.30
2013,05,05,04,44,14.10
2013,05,05,04,45,13.90
2013,05,05,04,46,13.90
2013,05,05,04,47,13.80
2013,05,05,04,48,13.60
2013,05,05,04,49,13.50
2013,05,05,04,50,13.40
2013,05,05,04,51,13.30
2013,05,05,04,52,13.30
2013,05,05,04,53,13.30
2013,05,05,04,54,13.20
2013,05,05,04,55,13.20
2013,05,05,04,56,13.20
2013,05,05,04,57,13.20
2013,05,05,04,58,13.20
2013,05,05,04,59,13.20
2013,05,05,05,00,13.20
2013,05,05,05,01,13.10
2013,05,05,05,02,13.00
2013,05,05,05,03,13.00
2013,05,05,05,04,12.90
2013,05,05,05,05,12.90
2013,05,05,05,06,12.80
2013,05,05,05,07,12.80
2013,05,05,05,08,12.80
2013,05,05,05,09,12.90
2013,05,05,05,10,12.90
2013,05,05,05,11,13.00
2013,05,05,05,12,13.10
2013,05,05,05,13,13.10
2013,05,05,05,14,13.10
2013,05,05,05,15,13.10
2013,05,05,05,16,13.00
2013,05,05,05,17,13.00
2013,05,05,05,18,13.00
2013,05,05,05,19,12.90
2013,05,05,05,20,12.90
2013,05,05,05,21,12.90
2013,05,05,05,22,12.90
2013,05,05,05,23,12.90
2013,05,05,05,24,13.00
2013,05,05,05,25,13.00
2013,05,05,05,26,13.10
2013,05,05,05,27,13.10
2013,05,05,05,28,13.10
2013,05,05,05,29,13.10
2013,05,05,05,30,13.10
2013,05,05,05,31,13.10
2013,05,05,05,32,13.10
2013,05,05,05,33,13.00
2013,05,05,05,34,12.90
2013,05,05,05,35,12.80
2013,05,05,05,36,12.80
2013,05,05,05,37,12.70
2013,05,05,05,38,12.60
2013,05,05,05,39,12.60
2013,05,05,05,40,12.50
2013,05,05,05,41,12.50
2013,05,05,05,42,12.40
2013,05,05,05,43,12.40
2013,05,05,05,44,12.40
2013,05,05,05,45,12.40
2013,05,05,05,46,12.40
2013,05,05,05,47,12.40
2013,05,05,05,48,12.40
2013,05,05,05,49,12.40
2013,05,05,05,50,12.40
2013,05,05,05,51,12.40
2013,05,05,05,52,12.40
2013,05,05,05,53,12.40
2013,05,05,05,54,12.30
2013,05,05,05,55,12.30
2013,05,05,05,56,12.30
2013,05,05,05,57,12.30
2013,05,05,05,58,12.30
2013,05,05,05,59,12.30
2013,05,05,06,00,12.20
2013,05,05,06,01,12.20
2013,05,05,06,02,12.10
2013,05,05,06,03,12.10
2013,05,05,06,04,12.10
2013,05,05,06,05,12.10
2013,05,05,06,06,12.10
2013,05,05,06,07,12.00
2013,05,05,06,08,12.00
2013,05,05,06,09,12.00
2013,05,05,06,10,12.00
2013,05,05,06,11,12.00
2013,05,05,06,12,12.00
2013,05,05,06,13,12.10
2013,05,05,06,14,12.10
2013,05,05,06,15,12.10
2013,05,05,06,16,12.10
2013,05,05,06,17,12.10
2013,05,05,06,18,12.10
2013,05,05,06,19,12.20
2013,05,05,06,20,12.20
2013,05,05,06,21,12.20
2013,05,05,06,22,12.30
2013,05,05,06,23,12.30
2013,05,05,06,24,12.30
2013,05,05,06,25,12.30
2013,05,05,06,26,12.40
2013,05,05,06,27,12.40
2013,05,05,06,28,12.40
2013,05,05,06,29,12.40
2013,05,05,06,30,12.50
2013,05,05,06,31,12.50
2013,05,05,06,32,12.50
2013,05,05,06,33,12.40
2013,05,05,06,34,12.40
2013,05,05,06,35,12.40
2013,05,05,06,36,12.40
2013,05,05,06,37,12.40
2013,05,05,06,38,12.30
2013,05,05,06,39,12.30
2013,05,05,06,40,12.30
2013,05,05,06,41,12.30
2013,05,05,06,42,12.30
2013,05,05,06,43,12.40
2013,05,05,06,44,12.50
2013,05,05,06,45,12.50
2013,05,05,06,46,12.50
2013,05,05,06,47,12.60
2013,05,05,06,48,12.60
2013,05,05,06,49,12.70
2013,05,05,06,50,12.70
2013,05,05,06,51,12.80
2013,05,05,06,52,12.90
2013,05,05,06,53,12.90
2013,05,05,06,54,13.00
2013,05,05,06,55,13.00
2013,05,05,06,56,13.10
2013,05,05,06,57,13.10
2013,05,05,06,58,13.20
2013,05,05,06,59,13.20
2013,05,05,07,00,13.20
2013,05,05,07,01,13.30
2013,05,05,07,02,13.40
2013,05,05,07,03,13.50
2013,05,05,07,04,13.50
2013,05,05,07,05,13.50
2013,05,05,07,06,13.60
2013,05,05,07,07,13.70
2013,05,05,07,08,13.70
2013,05,05,07,09,13.70
2013,05,05,07,10,13.80
2013,05,05,07,11,14.00
2013,05,05,07,12,14.10
2013,05,05,07,13,14.20
2013,05,05,07,14,14.20
2013,05,05,07,15,14.30
2013,05,05,07,16,14.40
2013,05,05,07,17,14.40
2013,05,05,07,18,14.40
2013,05,05,07,19,14.50
2013,05,05,07,20,14.50
2013,05,05,07,21,14.50
2013,05,05,07,22,14.50
2013,05,05,07,23,14.50
2013,05,05,07,24,14.60
2013,05,05,07,25,14.60
2013,05,05,07,26,14.60
2013,05,05,07,27,14.60
2013,05,05,07,28,14.60
2013,05,05,07,29,14.60
2013,05,05,07,30,14.50
2013,05,05,07,31,14.50
2013,05,05,07,32,14.40
2013,05,05,07,33,14.40
2013,05,05,07,34,14.40
2013,05,05,07,35,14.40
2013,05,05,07,36,14.40
2013,05,05,07,37,14.50
2013,05,05,07,38,14.50
2013,05,05,07,39,14.50
2013,05,05,07,40,14.60
2013,05,05,07,41,14.60
2013,05,05,07,42,14.70
2013,05,05,07,43,14.70
2013,05,05,07,44,14.70
2013,05,05,07,45,14.80
2013,05,05,07,46,14.80
2013,05,05,07,47,14.90
2013,05,05,07,48,15.00
2013,05,05,07,49,15.00
2013,05,05,07,50,15.10
2013,05,05,07,51,15.20
2013,05,05,07,52,15.30
2013,05,05,07,53,15.40
2013,05,05,07,54,15.50
2013,05,05,07,55,15.60
2013,05,05,07,56,15.70
2013,05,05,07,57,15.90
2013,05,05,07,58,16.10
2013,05,05,07,59,16.20
2013,05,05,08,00,16.20
2013,05,05,08,01,16.30
2013,05,05,08,02,16.30
2013,05,05,08,03,16.40
2013,05,05,08,04,16.40
2013,05,05,08,05,16.40
2013,05,05,08,06,16.40
2013,05,05,08,07,16.40
2013,05,05,08,08,16.40
2013,05,05,08,09,16.40
2013,05,05,08,10,16.50
2013,05,05,08,11,16.60
2013,05,05,08,12,16.70
2013,05,05,08,13,16.70
2013,05,05,08,14,16.70
2013,05,05,08,15,16.80
2013,05,05,08,16,16.90
2013,05,05,08,17,17.00
2013,05,05,08,18,17.10
2013,05,05,08,19,17.20
2013,05,05,08,20,17.30
2013,05,05,08,21,17.40
2013,05,05,08,22,17.40
2013,05,05,08,23,17.50
2013,05,05,08,24,17.50
2013,05,05,08,25,17.60
2013,05,05,08,26,17.60
2013,05,05,08,27,17.70
2013,05,05,08,28,17.70
2013,05,05,08,29,17.70
2013,05,05,08,30,17.70
2013,05,05,08,31,17.70
2013,05,05,08,32,17.70
2013,05,05,08,33,17.70
2013,05,05,08,34,17.80
2013,05,05,08,35,17.80
2013,05,05,08,36,17.80
2013,05,05,08,37,17.80
2013,05,05,08,38,17.80
2013,05,05,08,39,17.80
2013,05,05,08,40,17.70
2013,05,05,08,41,17.80
2013,05,05,08,42,17.90
2013,05,05,08,43,17.90
2013,05,05,08,44,17.90
2013,05,05,08,45,17.90
2013,05,05,08,46,17.80
2013,05,05,08,47,17.80
2013,05,05,08,48,17.90
2013,05,05,08,49,17.90
2013,05,05,08,50,17.90
2013,05,05,08,51,17.90
2013,05,05,08,52,17.90
2013,05,05,08,53,18.00
2013,05,05,08,54,18.10
2013,05,05,08,55,18.10
2013,05,05,08,56,18.10
2013,05,05,08,57,18.10
2013,05,05,08,58,18.10
2013,05,05,08,59,18.10
2013,05,05,09,00,18.10
2013,05,05,09,01,18.10
2013,05,05,09,02,18.20
2013,05,05,09,03,18.20
2013,05,05,09,04,18.20
2013,05,05,09,05,18.30
2013,05,05,09,06,18.40
2013,05,05,09,07,18.40
2013,05,05,09,08,18.40
2013,05,05,09,09,18.40
2013,05,05,09,10,18.30
2013,05,05,09,11,18.30
2013,05,05,09,12,18.30
2013,05,05,09,13,18.20
2013,05,05,09,14,18.20
2013,05,05,09,15,18.30
2013,05,05,09,16,18.20
2013,05,05,09,17,18.30
2013,05,05,09,18,18.30
2013,05,05,09,19,18.40
2013,05,05,09,20,18.40
2013,05,05,09,21,18.40
2013,05,05,09,22,18.40
2013,05,05,09,23,18.40
2013,05,05,09,24,18.50
2013,05,05,09,25,18.50
2013,05,05,09,26,18.60
2013,05,05,09,27,18.60
2013,05,05,09,28,18.60
2013,05,05,09,29,18.70
2013,05,05,09,30,18.80
2013,05,05,09,31,18.80
2013,05,05,09,32,18.70
2013,05,05,09,33,18.70
2013,05,05,09,34,18.70
2013,05,05,09,35,18.70
2013,05,05,09,36,18.70
2013,05,05,09,37,18.80
2013,05,05,09,38,18.90
2013,05,05,09,39,19.10
2013,05,05,09,40,19.20
2013,05,05,09,41,19.40
2013,05,05,09,42,19.50
2013,05,05,09,43,19.50
2013,05,05,09,44,19.50
2013,05,05,09,45,19.50
2013,05,05,09,46,19.40
2013,05,05,09,47,19.40
2013,05,05,09,48,19.40
2013,05,05,09,49,19.50
2013,05,05,09,50,19.50
2013,05,05,09,51,19.50
2013,05,05,09,52,19.50
2013,05,05,09,53,19.60
2013,05,05,09,54,19.60
2013,05,05,09,55,19.50
2013,05,05,09,56,19.50
2013,05,05,09,57,19.50
2013,05,05,09,58,19.60
2013,05,05,09,59,19.60
2013,05,05,10,00,19.70
2013,05,05,10,01,19.80
2013,05,05,10,02,19.80
2013,05,05,10,03,19.90
2013,05,05,10,04,19.90
2013,05,05,10,05,19.90
2013,05,05,10,06,20.00
2013,05,05,10,07,20.10
2013,05,05,10,08,20.10
2013,05,05,10,09,20.20
2013,05,05,10,10,20.20
2013,05,05,10,11,20.20
2013,05,05,10,12,20.30
2013,05,05,10,13,20.40
2013,05,05,10,14,20.50
2013,05,05,10,15,20.50
2013,05,05,10,16,20.40
2013,05,05,10,17,20.40
2013,05,05,10,18,20.30
2013,05,05,10,19,20.30
2013,05,05,10,20,20.30
2013,05,05,10,21,20.20
2013,05,05,10,22,20.20
2013,05,05,10,23,20.20
2013,05,05,10,24,20.20
2013,05,05,10,25,20.30
2013,05,05,10,26,20.40
2013,05,05,10,27,20.50
2013,05,05,10,28,20.50
2013,05,05,10,29,20.50
2013,05,05,10,30,20.60
2013,05,05,10,31,20.70
2013,05,05,10,32,20.80
2013,05,05,10,33,20.80
2013,05,05,10,34,20.80
2013,05,05,10,35,20.80
2013,05,05,10,36,20.80
2013,05,05,10,37,20.90
2013,05,05,10,38,20.90
2013,05,05,10,39,20.90
2013,05,05,10,40,20.90
2013,05,05,10,41,21.00
2013,05,05,10,42,21.00
2013,05,05,10,43,21.00
2013,05,05,10,44,21.00
2013,05,05,10,45,21.10
2013,05,05,10,46,21.20
2013,05,05,10,47,21.30
2013,05,05,10,48,21.30
2013,05,05,10,49,21.30
2013,05,05,10,50,21.30
2013,05,05,10,51,21.30
2013,05,05,10,52,21.30
2013,05,05,10,53,21.30
2013,05,05,10,54,21.30
2013,05,05,10,55,21.30
2013,05,05,10,56,21.30
2013,05,05,10,57,21.30
2013,05,05,10,58,21.30
2013,05,05,10,59,21.40
2013,05,05,11,00,21.50
2013,05,05,11,01,21.60
2013,05,05,11,02,21.60
2013,05,05,11,03,21.60
2013,05,05,11,04,21.60
2013,05,05,11,05,21.60
2013,05,05,11,06,21.60
2013,05,05,11,07,21.60
2013,05,05,11,08,21.60
2013,05,05,11,09,21.60
2013,05,05,11,10,21.70
2013,05,05,11,11,21.80
2013,05,05,11,12,21.80
2013,05,05,11,13,21.90
2013,05,05,11,14,21.90
2013,05,05,11,15,21.90
2013,05,05,11,16,22.00
2013,05,05,11,17,22.00
2013,05,05,11,18,21.90
2013,05,05,11,19,21.80
2013,05,05,11,20,21.80
2013,05,05,11,21,21.80
2013,05,05,11,22,21.70
2013,05,05,11,23,21.70
2013,05,05,11,24,21.60
2013,05,05,11,25,21.70
2013,05,05,11,26,21.80
2013,05,05,11,27,21.90
2013,05,05,11,28,22.00
2013,05,05,11,29,22.10
2013,05,05,11,30,22.20
2013,05,05,11,31,22.30
2013,05,05,11,32,22.40
2013,05,05,11,33,22.40
2013,05,05,11,34,22.40
2013,05,05,11,35,22.50
2013,05,05,11,36,22.50
2013,05,05,11,37,22.40
2013,05,05,11,38,22.40
2013,05,05,11,39,22.30
2013,05,05,11,40,22.20
2013,05,05,11,41,22.20
2013,05,05,11,42,22.30
2013,05,05,11,43,22.30
2013,05,05,11,44,22.30
2013,05,05,11,45,22.30
2013,05,05,11,46,22.30
2013,05,05,11,47,22.30
2013,05,05,11,48,22.30
2013,05,05,11,49,22.40
2013,05,05,11,50,22.40
2013,05,05,11,51,22.40
2013,05,05,11,52,22.40
2013,05,05,11,53,22.50
2013,05,05,11,54,22.50
2013,05,05,11,55,22.40
2013,05,05,11,56,22.50
2013,05,05,11,57,22.60
2013,05,05,11,58,22.70
2013,05,05,11,59,22.80
2013,05,05,12,00,22.90
2013,05,05,12,01,23.00
2013,05,05,12,02,23.10
2013,05,05,12,03,23.10
2013,05,05,12,04,23.20
2013,05,05,12,05,23.30
2013,05,05,12,06,23.30
2013,05,05,12,07,23.30
2013,05,05,12,08,23.50
2013,05,05,12,09,23.60
2013,05,05,12,10,23.70
2013,05,05,12,11,23.60
2013,05,05,12,12,23.60
2013,05,05,12,13,23.40
2013,05,05,12,14,23.40
2013,05,05,12,15,23.40
2013,05,05,12,16,23.50
2013,05,05,12,17,23.60
2013,05,05,12,18,23.70
2013,05,05,12,19,23.70
2013,05,05,12,20,23.80
2013,05,05,12,21,23.80
2013,05,05,12,22,23.70
2013,05,05,12,23,23.70
2013,05,05,12,24,23.70
2013,05,05,12,25,23.80
2013,05,05,12,26,23.80
2013,05,05,12,27,23.90
2013,05,05,12,28,23.90
2013,05,05,12,29,23.80
2013,05,05,12,30,23.90
2013,05,05,12,31,24.00
2013,05,05,12,32,24.10
2013,05,05,12,33,24.10
2013,05,05,12,34,23.90
2013,05,05,12,35,23.70
2013,05,05,12,36,23.60
2013,05,05,12,37,23.60
2013,05,05,12,38,23.60
2013,05,05,12,39,23.70
2013,05,05,12,40,23.70
2013,05,05,12,41,23.70
2013,05,05,12,42,23.80
2013,05,05,12,43,23.90
2013,05,05,12,44,23.90
2013,05,05,12,45,23.90
2013,05,05,12,46,23.80
2013,05,05,12,47,23.70
2013,05,05,12,48,23.70
2013,05,05,12,49,23.70
2013,05,05,12,50,23.60
2013,05,05,12,51,23.40
2013,05,05,12,52,23.60
2013,05,05,12,53,23.70
2013,05,05,12,54,23.70
2013,05,05,12,55,23.70
2013,05,05,12,56,23.70
2013,05,05,12,57,23.80
2013,05,05,12,58,23.90
2013,05,05,12,59,23.80
2013,05,05,13,00,23.70
2013,05,05,13,01,23.70
2013,05,05,13,02,23.60
2013,05,05,13,03,23.70
2013,05,05,13,04,23.80
2013,05,05,13,05,24.00
2013,05,05,13,06,24.10
2013,05,05,13,07,24.20
2013,05,05,13,08,24.30
2013,05,05,13,09,24.30
2013,05,05,13,10,24.40
2013,05,05,13,11,24.50
2013,05,05,13,12,24.40
2013,05,05,13,13,24.40
2013,05,05,13,14,24.40
2013,05,05,13,15,24.50
2013,05,05,13,16,24.60
2013,05,05,13,17,24.70
2013,05,05,13,18,24.70
2013,05,05,13,19,24.80
2013,05,05,13,20,24.90
2013,05,05,13,21,24.90
2013,05,05,13,22,24.90
2013,05,05,13,23,24.90
2013,05,05,13,24,24.90
2013,05,05,13,25,24.80
2013,05,05,13,26,24.80
2013,05,05,13,27,24.90
2013,05,05,13,28,24.90
2013,05,05,13,29,25.00
2013,05,05,13,30,25.00
2013,05,05,13,31,24.90
2013,05,05,13,32,24.90
2013,05,05,13,33,24.90
2013,05,05,13,34,25.00
2013,05,05,13,35,25.20
2013,05,05,13,36,25.20
2013,05,05,13,37,25.20
2013,05,05,13,38,25.20
2013,05,05,13,39,25.00
2013,05,05,13,40,24.90
2013,05,05,13,41,24.70
2013,05,05,13,42,24.50
2013,05,05,13,43,24.50
2013,05,05,13,44,24.60
2013,05,05,13,45,24.70
2013,05,05,13,46,24.70
2013,05,05,13,47,24.80
2013,05,05,13,48,24.70
2013,05,05,13,49,24.70
2013,05,05,13,50,24.80
2013,05,05,13,51,24.90
2013,05,05,13,52,25.00
2013,05,05,13,53,25.20
2013,05,05,13,54,25.30
2013,05,05,13,55,25.30
2013,05,05,13,56,25.30
2013,05,05,13,57,25.30
2013,05,05,13,58,25.40
2013,05,05,13,59,25.50
2013,05,05,14,00,25.50
2013,05,05,14,01,25.60
2013,05,05,14,02,25.60
2013,05,05,14,03,25.60
2013,05,05,14,04,25.70
2013,05,05,14,05,25.70
2013,05,05,14,06,25.60
2013,05,05,14,07,25.40
2013,05,05,14,08,25.20
2013,05,05,14,09,25.20
2013,05,05,14,10,25.30
2013,05,05,14,11,25.40
2013,05,05,14,12,25.40
2013,05,05,14,13,25.40
2013,05,05,14,14,25.50
2013,05,05,14,15,25.50
2013,05,05,14,16,25.50
2013,05,05,14,17,25.30
2013,05,05,14,18,25.40
2013,05,05,14,19,25.40
2013,05,05,14,20,25.60
2013,05,05,14,21,25.60
2013,05,05,14,22,25.80
2013,05,05,14,23,25.80
2013,05,05,14,24,25.90
2013,05,05,14,25,26.10
2013,05,05,14,26,26.10
2013,05,05,14,27,26.10
2013,05,05,14,28,26.20
2013,05,05,14,29,26.20
2013,05,05,14,30,26.20
2013,05,05,14,31,26.30
2013,05,05,14,32,26.30
2013,05,05,14,33,26.20
2013,05,05,14,34,26.20
2013,05,05,14,35,26.10
2013,05,05,14,36,26.20
2013,05,05,14,37,26.30
2013,05,05,14,38,26.20
2013,05,05,14,39,26.20
2013,05,05,14,40,26.20
2013,05,05,14,41,26.20
2013,05,05,14,42,26.20
2013,05,05,14,43,26.20
2013,05,05,14,44,26.30
2013,05,05,14,45,26.30
2013,05,05,14,46,26.20
2013,05,05,14,47,26.20
2013,05,05,14,48,26.40
2013,05,05,14,49,26.40
2013,05,05,14,50,26.40
2013,05,05,14,51,26.50
2013,05,05,14,52,26.60
2013,05,05,14,53,26.50
2013,05,05,14,54,26.30
2013,05,05,14,55,26.30
2013,05,05,14,56,26.30
2013,05,05,14,57,26.30
2013,05,05,14,58,26.30
2013,05,05,14,59,26.30
2013,05,05,15,00,26.30
2013,05,05,15,01,26.20
2013,05,05,15,02,25.90
2013,05,05,15,03,25.60
2013,05,05,15,04,25.50
2013,05,05,15,05,25.40
2013,05,05,15,06,25.40
2013,05,05,15,07,25.40
2013,05,05,15,08,25.30
2013,05,05,15,09,25.40
2013,05,05,15,10,25.50
2013,05,05,15,11,25.50
2013,05,05,15,12,25.60
2013,05,05,15,13,25.70
2013,05,05,15,14,25.80
2013,05,05,15,15,25.90
2013,05,05,15,16,25.90
2013,05,05,15,17,25.90
2013,05,05,15,18,26.00
2013,05,05,15,19,25.90
2013,05,05,15,20,25.80
2013,05,05,15,21,25.40
2013,05,05,15,22,24.90
2013,05,05,15,23,24.30
2013,05,05,15,24,23.50
2013,05,05,15,25,22.80
2013,05,05,15,26,22.30
2013,05,05,15,27,21.90
2013,05,05,15,28,21.60
2013,05,05,15,29,21.50
2013,05,05,15,30,21.20
2013,05,05,15,31,20.90
2013,05,05,15,32,20.70
2013,05,05,15,33,20.70
2013,05,05,15,34,20.60
2013,05,05,15,35,20.60
2013,05,05,15,36,20.60
2013,05,05,15,37,20.70
2013,05,05,15,38,20.80
2013,05,05,15,39,20.80
2013,05,05,15,40,21.00
2013,05,05,15,41,21.20
2013,05,05,15,42,21.30
2013,05,05,15,43,21.50
2013,05,05,15,44,21.70
2013,05,05,15,45,21.90
2013,05,05,15,46,22.10
2013,05,05,15,47,22.10
2013,05,05,15,48,22.20
2013,05,05,15,49,22.30
2013,05,05,15,50,22.40
2013,05,05,15,51,22.40
2013,05,05,15,52,22.50
2013,05,05,15,53,22.50
2013,05,05,15,54,22.50
2013,05,05,15,55,22.60
2013,05,05,15,56,22.60
2013,05,05,15,57,22.70
2013,05,05,15,58,22.80
2013,05,05,15,59,22.90
2013,05,05,16,00,22.90
2013,05,05,16,01,23.00
2013,05,05,16,02,23.10
2013,05,05,16,03,23.20
2013,05,05,16,04,23.30
2013,05,05,16,05,23.30
2013,05,05,16,06,23.30
2013,05,05,16,07,23.30
2013,05,05,16,08,23.30
2013,05,05,16,09,23.10
2013,05,05,16,10,23.00
2013,05,05,16,11,22.90
2013,05,05,16,12,22.70
2013,05,05,16,13,22.70
2013,05,05,16,14,22.50
2013,05,05,16,15,22.30
2013,05,05,16,16,22.20
2013,05,05,16,17,22.20
2013,05,05,16,18,22.20
2013,05,05,16,19,22.30
2013,05,05,16,20,22.30
2013,05,05,16,21,22.40
2013,05,05,16,22,22.50
2013,05,05,16,23,22.60
2013,05,05,16,24,22.60
2013,05,05,16,25,22.60
2013,05,05,16,26,22.50
2013,05,05,16,27,22.50
2013,05,05,16,28,22.40
2013,05,05,16,29,22.40
2013,05,05,16,30,22.30
2013,05,05,16,31,22.30
2013,05,05,16,32,22.30
2013,05,05,16,33,22.40
2013,05,05,16,34,22.50
2013,05,05,16,35,22.50
2013,05,05,16,36,22.50
2013,05,05,16,37,22.50
2013,05,05,16,38,22.60
2013,05,05,16,39,22.50
2013,05,05,16,40,22.40
2013,05,05,16,41,22.20
2013,05,05,16,42,22.10
2013,05,05,16,43,22.00
2013,05,05,16,44,21.90
2013,05,05,16,45,21.90
2013,05,05,16,46,22.00
2013,05,05,16,47,22.10
2013,05,05,16,48,22.20
2013,05,05,16,49,22.20
2013,05,05,16,50,22.30
2013,05,05,16,51,22.40
2013,05,05,16,52,22.40
2013,05,05,16,53,22.40
2013,05,05,16,54,22.60
2013,05,05,16,55,22.70
2013,05,05,16,56,22.70
2013,05,05,16,57,22.80
2013,05,05,16,58,22.80
2013,05,05,16,59,22.70
2013,05,05,17,00,22.50
2013,05,05,17,01,22.40
2013,05,05,17,02,22.40
2013,05,05,17,03,22.40
2013,05,05,17,04,22.50
2013,05,05,17,05,22.60
2013,05,05,17,06,22.70
2013,05,05,17,07,22.80
2013,05,05,17,08,22.90
2013,05,05,17,09,22.90
2013,05,05,17,10,23.10
2013,05,05,17,11,23.20
2013,05,05,17,12,23.40
2013,05,05,17,13,23.50
2013,05,05,17,14,23.60
2013,05,05,17,15,23.70
2013,05,05,17,16,23.90
2013,05,05,17,17,24.10
2013,05,05,17,18,24.20
2013,05,05,17,19,24.40